Regional Weather Roundup
Issued by NWS Cleveland, OH

Home | Current Version | Previous Version | Text Only | Print | Product List | Glossary Off
Versions: 1 2 3 4 5 6 7 8 9 10 11 12 13 14 15 16 17 18 19 20 21 22 23 24 25 26 27 28 29 30 31 32 33 34 35 36 37 38 39 40 41 42 43 44 45 46 47 48 49 50

000
ASUS41 KCLE 291410
RWRCLE
OHIO REGIONAL WEATHER ROUNDUP
NATIONAL WEATHER SERVICE CLEVELAND, OH
1000 AM EDT SAT AUG 29 2015

NOTE: "FAIR" INDICATES FEW OR NO CLOUDS BELOW 12,000 FEET WITH NO
SIGNIFICANT WEATHER AND/OR OBSTRUCTIONS TO VISIBILITY.

OHZ001>008-015>018-024>027-034-035-043-044-291500-
   NORTHWEST OHIO

CITY           SKY/WX    TMP DP  RH WIND       PRES   REMARKS
DEFIANCE       CLOUDY    69  59  70 E3        30.12F
FINDLAY        CLOUDY    69  61  75 E6        30.12F
TOLEDO EXPRESS CLOUDY    66  60  81 SE3       30.13F
TOLEDO EXEC    PTSUNNY   69  59  70 SE5       30.14F
LIMA           CLOUDY    68  59  73 S9        30.13S
$$

OHZ009>014-019>023-028>033-038-089-291500-
   NORTHEAST OHIO

CITY           SKY/WX    TMP DP  RH WIND       PRES   REMARKS
CLE-HOPKINS    CLOUDY    70  59  68 S3        30.19S
CLE-LAKEFRONT  CLOUDY    71  57  61 SE6       30.16S
CUY CO. ARPT   NOT AVBL
LORAIN-ELYRIA  CLOUDY    66  60  81 S3        30.17S
ASHTABULA      CLOUDY    66  60  81 S6        30.19F
AKRON-CANTON   PTSUNNY   68  58  70 S3        30.19S
WOOSTER        PTSUNNY   67  58  72 S3        30.19S
MANSFIELD      CLOUDY    70  58  65 S6        30.18S
YOUNGSTOWN     CLOUDY    66  57  72 SW6       30.20R
$$

OHZ042-051>053-060>062-070>072-077>081-291500-
  SOUTHWEST OHIO

CITY           SKY/WX    TMP DP  RH WIND       PRES   REMARKS
CINC-COVINGTON NOT AVBL
CINC-LUNKEN    SUNNY     73  66  78 S5        30.14F
HAMILTON       SUNNY     78  66  66 VRB3      30.14F
DAYTON         CLOUDY    71  63  75 SW12      30.15S
WRIGHT-PAT AFB PTSUNNY   72  63  73 S5        30.13F
DAYTON GENERAL MOSUNNY   73  63  70 S10       30.14S
WILMINGTON     MOSUNNY   74  63  68 SW13      30.15F
$$

OHZ036-037-039>041-045>050-054>059-063>069-073>076-082>088-291500-
  CENTRAL AND SOUTHEAST OHIO

CITY           SKY/WX    TMP DP  RH WIND       PRES   REMARKS
COLUMBUS       MOSUNNY   71  59  65 S7        30.15F
OSU AIRPORT    PTSUNNY   72  60  66 S8        30.15F
BOLTON FIELD   SUNNY     70  63  78 S7        30.16F
RICKENBACK AFB MOSUNNY   67  61  79 S6        30.15F
NEWARK         MOSUNNY   68  60  75 CALM      30.17S
MARION         CLOUDY    67  59  75 S6        30.16S
LANCASTER      PTSUNNY   71  62  73 SE6       30.17S
ZANESVILLE     PTSUNNY   66  56  70 CALM      30.18S
NEW PHILLY     MOSUNNY   68  59  73 CALM      30.19S
$$



USA.gov is the U.S. government's official web portal to all federal, state and local government web resources and services.